Vorticity
28 32 32 31 29 27 25 22 17 11 6 6 5 6 6 6 7 8 10 9 8 6 5 7 10 13 14 13 11 10 8 8 7 6 4 3 3 4 7 12 17 20 20 17 14 12 11 11 10 10 9 9 8 8 8 11 15 17 18 16 14 12 11 11 11 10 9 9 10 12 14 14 13 10 7 6 6 7 6 4 3 3 4 4 2 -1
20 28 32 33 32 31 28 24 19 15 11 10 8 7 7 7 7 7 8 8 8 8 8 11 14 16 16 13 12 10 8 7 6 5 4 4 5 7 11 15 18 19 17 14 12 11 10 10 9 9 9 9 8 9 10 13 16 18 18 16 14 12 11 11 11 11 10 9 9 9 10 11 10 9 7 6 8 9 8 5 3 2 2 3 2 -0
4 13 20 25 28 29 29 28 26 23 20 17 14 12 11 11 11 11 11 11 12 13 14 17 19 19 17 14 12 9 7 6 5 4 4 6 8 11 15 17 17 15 13 11 10 9 8 8 8 9 9 9 9 10 12 15 17 18 18 16 14 12 11 11 12 12 11 10 9 8 7 6 7 7 7 7 9 10 9 6 3 2 2 3 3 0
-10 -8 -3 2 6 10 15 19 23 25 26 24 21 18 16 15 16 16 17 18 19 20 22 23 23 21 18 15 11 8 6 5 5 5 7 10 12 14 16 15 13 11 9 8 7 7 7 7 7 8 9 9 10 11 14 17 18 19 18 16 13 12 10 10 11 11 12 11 9 7 5 4 4 5 6 7 10 11 10 7 4 3 2 4 4 2
-11 -15 -18 -17 -15 -13 -9 -3 4 12 19 22 22 20 18 17 17 19 21 23 25 26 26 25 24 21 17 13 10 7 6 6 7 8 11 13 15 15 14 12 10 8 6 6 5 5 5 6 7 8 9 10 11 13 16 18 19 18 17 15 13 11 9 9 9 9 10 9 7 6 4 4 4 4 4 6 8 11 12 9 7 5 4 5 5 3
-2 -6 -12 -16 -17 -17 -16 -12 -6 1 9 14 17 18 18 16 16 17 20 23 25 26 25 23 20 17 14 10 8 7 7 9 11 13 15 15 14 12 10 8 7 5 4 4 4 4 5 6 7 8 9 10 12 14 17 19 19 18 16 14 12 10 8 7 6 6 5 5 4 4 4 4 3 3 2 3 6 8 10 10 9 7 7 7 6 4
4 3 0 -3 -5 -6 -6 -4 -2 2 6 10 12 14 16 15 15 15 17 20 21 21 19 17 14 11 9 8 8 9 11 14 15 16 16 13 11 9 7 5 4 4 3 3 3 4 5 6 7 8 9 11 13 16 19 19 18 17 15 13 11 9 8 6 4 3 2 1 2 2 2 3 3 2 1 2 4 6 9 9 9 8 8 8 7 5
7 7 6 6 6 6 7 7 8 9 11 11 11 12 13 14 14 14 14 16 16 15 13 10 8 6 5 7 9 13 16 17 17 16 13 10 7 5 4 3 2 2 2 2 3 4 6 7 8 10 10 12 15 17 19 19 18 16 14 12 10 8 7 4 2 1 0 0 1 2 2 3 3 3 2 2 4 6 8 8 8 8 7 8 7 6
10 9 8 9 9 10 11 12 13 14 15 13 12 11 11 11 12 12 12 12 11 10 8 6 5 5 6 8 12 15 17 17 16 13 9 6 4 2 2 1 1 2 2 3 4 5 7 9 10 11 12 14 16 19 20 18 16 14 13 11 9 7 5 3 1 0 0 1 2 3 4 5 5 6 6 6 8 9 10 9 9 8 7 7 7 6
12 11 10 10 11 11 11 11 13 14 16 14 13 12 11 10 10 9 10 9 9 8 6 6 6 6 8 11 14 16 16 14 12 8 5 3 1 1 0 1 2 2 3 4 6 7 9 10 11 13 14 16 18 19 19 17 15 13 11 9 7 5 3 2 1 1 2 3 4 6 7 7 8 9 10 10 12 12 12 11 10 9 8 7 7 6
13 12 11 11 11 12 12 11 12 12 13 12 11 10 11 12 11 10 9 8 8 8 7 7 8 9 10 12 13 13 13 10 8 5 2 1 0 0 1 2 3 4 5 6 8 9 11 12 13 14 15 17 18 19 17 15 13 11 9 7 5 3 2 2 2 3 5 6 7 8 9 10 10 11 12 13 14 15 14 14 13 11 10 8 7 7
12 12 12 11 10 10 10 10 10 10 10 8 7 6 7 10 11 12 11 9 8 8 9 9 10 10 11 11 11 10 9 7 5 2 1 0 1 1 2 4 6 7 8 9 11 12 13 14 14 15 16 18 18 17 15 13 10 8 6 5 3 2 2 3 4 6 7 9 10 11 11 12 12 12 12 13 14 15 15 15 14 13 11 10 9 8
9 10 11 10 9 9 8 8 8 7 7 6 6 6 6 7 9 11 12 11 11 10 9 10 10 10 10 9 8 7 5 4 3 2 1 2 2 3 5 7 8 10 11 13 14 15 15 15 15 16 17 18 17 15 12 10 8 6 4 3 2 2 3 5 6 8 10 11 12 13 13 12 12 12 12 12 13 13 14 15 15 14 13 11 10 10
6 7 8 8 8 8 8 7 7 8 8 9 9 9 8 7 8 11 13 13 13 12 10 10 9 9 8 8 7 6 5 5 4 4 4 4 5 6 8 10 11 13 14 15 17 17 17 16 16 16 17 16 14 12 9 7 6 4 3 2 3 4 5 7 9 10 12 13 13 13 12 12 12 11 11 11 11 12 13 14 14 14 13 12 11 10
4 5 7 9 9 9 8 9 9 10 11 11 10 10 10 11 13 15 16 16 14 12 10 9 8 8 9 9 8 8 8 8 8 8 8 8 9 10 11 13 14 15 16 17 18 18 17 16 15 15 15 14 11 9 7 5 4 3 2 3 4 5 7 9 10 12 13 13 12 12 11 10 10 10 10 10 10 10 11 13 13 13 13 13 12 11
6 8 10 12 13 13 12 12 12 12 12 12 12 12 12 13 15 16 17 16 14 12 11 10 10 12 14 14 14 13 13 13 13 12 11 12 13 13 14 15 15 16 17 18 18 17 16 15 14 13 12 10 8 6 5 4 3 2 2 3 5 6 8 9 10 11 11 11 10 9 9 9 9 9 9 8 9 9 10 11 12 13 13 13 13 13
13 15 16 17 17 17 16 16 16 16 15 15 15 15 14 13 12 12 13 12 12 12 13 13 13 14 16 18 20 20 18 16 16 15 15 15 15 15 15 15 14 14 15 16 16 15 13 12 12 11 10 8 6 4 3 2 2 2 3 4 5 6 8 9 9 10 9 9 8 8 8 8 8 8 8 8 8 8 8 9 10 12 13 13 14 13
22 22 23 23 22 20 18 18 18 18 18 18 17 17 16 16 14 12 10 8 8 9 12 15 17 17 15 16 16 16 16 15 15 15 17 17 16 15 13 13 13 12 12 13 13 13 11 10 9 8 7 6 4 4 3 2 2 2 3 4 5 6 7 8 8 8 8 8 8 8 8 8 8 8 8 7 7 7 8 8 8 10 11 12 13 13
22 23 23 23 22 21 19 19 18 19 19 19 19 19 20 19 17 14 11 9 8 8 8 11 14 16 18 16 12 10 11 11 12 13 15 15 13 11 10 10 10 10 10 11 10 10 9 8 8 6 5 4 4 3 3 3 3 3 4 4 5 6 7 7 7 8 8 8 8 8 8 8 8 8 7 7 7 8 8 7 7 7 9 10 12 13
14 16 17 18 18 18 17 16 16 16 17 18 19 20 21 20 19 16 13 10 9 9 9 10 12 13 14 13 11 9 9 8 10 13 14 12 9 7 6 6 7 8 9 9 9 8 8 7 6 5 4 4 4 4 4 4 4 4 5 6 6 6 7 7 8 8 8 8 8 8 8 8 8 8 7 7 8 8 8 8 7 7 9 11 13 15
8 10 10 12 13 13 13 13 13 13 14 15 15 16 18 19 18 17 14 12 10 10 10 12 12 12 11 10 9 8 6 6 9 11 11 11 9 8 6 6 7 7 8 8 8 8 7 6 5 4 4 3 3 4 4 5 6 6 6 7 7 7 8 8 8 8 8 8 8 8 7 7 7 7 7 7 8 8 8 8 8 9 11 13 14 16
7 6 7 8 9 10 11 11 11 11 12 12 12 12 13 14 15 15 14 13 12 11 11 12 12 12 11 10 9 8 6 7 7 8 8 9 9 8 7 7 8 9 10 9 8 8 7 6 5 4 3 3 4 4 5 6 7 8 8 8 8 8 8 9 9 9 9 9 8 8 7 7 7 7 7 7 8 8 8 9 9 10 12 13 14 16
7 7 7 6 7 7 8 9 10 10 10 10 9 9 9 10 11 12 12 12 12 12 11 11 11 11 11 11 11 10 9 8 7 7 8 8 7 5 4 6 8 9 9 8 8 7 7 6 5 4 4 4 4 5 6 7 8 9 9 9 9 10 10 10 10 10 10 9 8 8 7 7 7 7 7 8 8 8 9 9 10 11 13 13 14 15
5 6 5 5 5 5 6 6 8 9 9 9 8 8 8 8 8 8 9 9 10 10 10 10 10 10 10 11 11 11 11 9 8 8 9 9 7 5 4 4 5 6 7 7 7 7 7 7 6 6 6 6 6 7 7 8 9 10 10 10 10 11 11 11 10 10 10 9 8 8 7 7 7 8 8 9 9 10 10 10 11 12 12 13 13 15
3 4 4 4 3 3 3 4 5 6 8 8 8 8 7 6 6 6 6 5 6 6 6 6 6 6 7 8 9 10 11 10 10 10 10 11 10 8 6 5 5 5 4 5 6 6 6 7 8 9 9 9 9 9 10 10 11 11 11 12 12 11 11 10 10 10 9 8 8 8 7 8 8 9 10 10 11 11 11 12 13 13 12 12 13 13
5 5 5 4 4 3 2 2 2 2 4 6 7 7 7 6 5 4 3 2 2 3 4 3 2 2 3 4 5 7 8 9 9 9 10 11 10 10 8 7 6 6 5 5 5 5 6 7 8 9 10 10 11 11 12 12 12 12 12 12 11 11 10 9 9 8 8 8 8 8 8 8 9 10 11 11 11 12 12 13 13 12 12 11 11 11
8 8 8 8 7 5 4 2 1 0 1 2 3 4 5 4 4 2 0 0 1 2 2 2 2 2 1 1 2 3 4 5 6 6 7 8 8 8 6 6 6 6 6 6 5 5 5 6 7 8 9 10 11 12 12 12 12 12 12 11 11 10 9 8 8 8 8 8 8 8 8 9 10 11 11 11 12 12 12 12 12 11 10 9 8 8
10 10 10 10 10 9 8 7 5 3 2 2 2 2 2 2 2 0 -0 0 0 1 1 1 2 3 2 1 1 1 2 2 2 3 4 4 4 4 4 4 4 5 5 6 6 6 6 6 7 7 9 9 10 11 11 11 11 11 11 11 10 9 8 8 8 8 8 8 8 8 8 9 10 10 11 11 11 10 10 10 9 8 7 6 6 6
8 8 9 10 10 10 10 10 9 8 6 5 4 4 3 1 0 0 2 1 1 0 0 0 1 2 4 3 3 2 1 1 1 2 2 2 3 3 3 3 4 4 4 6 7 8 8 8 8 8 9 9 10 10 10 10 10 10 10 10 9 9 8 8 8 8 9 9 9 8 8 8 9 9 9 9 9 8 8 7 6 6 5 4 4 4
5 5 6 7 8 8 9 9 9 9 9 9 8 8 7 4 3 3 4 2 1 1 2 1 1 2 3 4 4 4 2 2 3 3 4 3 4 5 5 5 5 5 5 7 8 10 10 11 10 10 10 10 10 10 9 9 9 9 9 9 8 8 8 8 8 8 9 9 8 8 8 8 8 8 7 7 7 6 6 5 4 4 4 3 3 4
2 3 4 4 4 5 6 7 7 8 8 9 9 9 10 9 8 7 7 5 4 3 4 4 3 3 3 4 4 4 4 5 5 5 4 5 6 8 7 7 8 8 7 7 8 8 9 11 11 10 10 10 10 10 9 9 8 8 8 7 7 7 7 7 7 8 8 8 8 7 7 7 7 7 6 6 5 4 3 3 3 3 3 3 4 4
2 2 2 2 3 4 4 5 5 6 6 7 7 8 8 9 9 9 9 8 7 6 6 6 6 6 4 4 4 4 5 6 6 5 5 6 7 8 7 8 8 9 8 8 8 8 7 8 8 9 9 9 9 9 9 8 8 8 7 7 7 7 6 6 7 7 8 8 7 7 6 6 6 6 5 5 4 3 2 2 2 2 3 4 4 5
2 2 2 2 2 3 3 4 4 5 5 5 6 6 6 7 7 7 8 8 7 7 7 7 8 8 7 6 5 6 6 7 6 5 6 6 8 8 8 7 8 9 9 10 10 10 10 8 8 8 9 9 9 8 8 8 8 8 8 8 8 7 7 7 7 8 8 8 7 6 5 5 5 5 5 4 3 2 2 2 3 4 4 5 5 6
3 2 2 2 2 2 3 3 4 4 4 5 5 5 5 6 6 6 6 6 6 6 6 6 6 6 7 7 8 8 8 8 7 6 7 8 8 9 9 8 8 8 9 10 10 10 11 11 10 10 10 10 10 9 8 8 8 9 10 10 10 9 8 8 9 9 9 8 6 5 4 4 4 4 4 4 3 3 3 4 4 5 6 6 6 6
4 4 3 3 2 2 2 2 3 4 4 4 4 4 5 5 5 5 6 6 6 5 5 4 4 4 4 4 6 7 9 8 8 7 9 10 10 10 10 10 10 10 10 10 10 10 10 11 11 10 9 9 10 11 10 10 10 10 12 12 12 11 10 10 10 10 9 7 6 4 3 2 2 3 3 3 4 4 4 4 6 6 7 7 7 6
7 6 5 4 4 3 3 2 2 3 3 4 4 4 4 5 5 5 5 6 6 6 5 4 4 2 2 2 2 3 5 5 5 6 8 9 10 11 11 12 12 12 12 12 11 11 10 11 12 11 10 9 8 9 11 11 12 13 14 13 13 12 11 10 10 10 8 6 5 4 2 2 2 2 2 3 4 4 5 5 6 6 7 7 7 6
11 10 8 7 6 6 5 4 4 3 3 3 3 4 4 4 4 5 5 5 6 6 6 6 5 4 3 2 1 1 0 0 1 2 4 6 9 11 12 12 13 13 14 13 12 12 11 11 12 12 12 9 6 5 6 9 12 15 15 13 11 10 8 8 8 8 7 6 4 3 2 1 1 1 2 3 3 4 4 5 5 6 6 7 6 6
17 15 13 12 10 9 8 7 6 5 4 4 3 3 3 4 4 4 5 5 5 5 6 6 6 6 5 5 4 2 1 0 0 0 0 2 5 8 11 12 14 15 15 14 13 12 11 11 11 11 10 9 7 5 3 5 8 12 13 12 9 7 6 5 6 6 6 5 4 3 2 1 0 0 1 2 2 3 3 4 5 6 6 6 6 6
22 21 19 17 15 13 12 11 9 8 7 6 5 4 4 4 4 4 5 5 5 5 5 5 6 6 6 6 6 5 4 3 2 0 -1 -2 -0 3 7 11 13 15 15 15 14 13 13 13 12 11 8 6 4 4 3 4 7 9 10 10 9 7 5 4 3 4 4 4 4 3 2 1 0 -0 -0 1 2 2 3 4 4 5 5 5 5 5
27 27 25 23 21 19 17 15 13 12 11 10 9 8 7 6 5 5 5 5 5 5 5 5 6 6 6 7 7 7 7 6 5 4 2 -1 -3 -3 -0 6 10 13 15 15 14 14 13 13 13 12 10 6 3 0 -1 1 3 5 7 10 10 8 5 3 2 2 3 3 3 3 2 2 1 0 0 1 2 3 3 4 4 5 5 5 5 5
29 29 29 28 27 25 24 21 19 17 16 14 13 12 11 9 8 6 6 5 5 5 5 5 5 6 6 7 7 7 7 7 7 6 6 4 0 -3 -6 -4 1 7 12 13 13 13 12 12 11 11 10 8 4 1 -2 -2 -2 -0 4 9 10 10 7 4 2 1 1 2 2 2 2 2 2 2 2 2 2 3 4 4 5 5 6 6 6 6
30 29 30 29 30 29 28 27 25 23 21 19 18 16 15 13 11 10 8 7 6 6 5 5 4 4 5 5 6 6 6 7 7 7 8 8 6 2 -3 -8 -9 -6 0 6 9 10 10 9 9 8 8 5 2 -0 -2 -3 -4 -4 -1 4 9 11 11 9 5 2 1 1 2 2 2 2 2 3 3 4 4 4 4 6 6 6 6 7 7 8
32 31 30 30 30 30 30 30 29 28 26 24 22 20 18 17 15 14 13 11 10 8 7 7 6 5 4 4 5 5 6 6 6 7 8 9 9 8 5 -1 -8 -12 -14 -8 -3 1 4 4 5 5 4 3 1 -2 -5 -6 -7 -6 -4 -1 4 9 13 12 9 6 3 3 2 2 2 2 2 3 4 5 5 6 6 7 7 7 8 8 8 8
34 34 33 32 32 31 32 32 31 30 29 28 26 24 22 21 19 18 16 15 14 12 11 10 8 8 7 6 5 4 4 5 6 6 7 8 9 10 10 7 2 -5 -13 -16 -17 -14 -10 -7 -5 -4 -3 -4 -4 -5 -7 -8 -9 -8 -7 -4 1 7 14 13 12 9 7 6 5 4 4 3 3 4 5 6 7 8 8 8 8 8 8 9 9 9
36 35 34 34 33 33 33 33 32 32 32 31 29 28 26 24 23 21 20 18 16 15 14 12 11 10 10 8 6 5 5 5 6 6 6 7 8 9 10 10 9 6 -0 -8 -15 -20 -24 -22 -20 -18 -16 -14 -13 -12 -12 -12 -11 -9 -7 -3 1 6 12 14 14 12 10 8 7 6 6 5 5 5 6 7 8 9 9 9 9 9 9 9 9 10
36 35 35 35 35 35 35 34 33 34 34 33 32 31 30 29 27 25 24 22 20 18 17 15 14 13 12 10 8 8 7 7 6 6 6 7 7 7 8 9 10 10 9 5 -1 -8 -15 -22 -26 -27 -27 -24 -21 -18 -16 -14 -11 -8 -5 -1 3 7 12 14 15 14 12 10 9 8 8 7 7 6 7 8 9 10 10 10 10 10 9 9 10 10
33 34 34 34 35 35 36 35 35 36 36 35 35 34 33 33 31 30 28 26 24 22 20 19 18 17 15 13 12 11 10 8 7 7 7 6 6 6 6 7 8 10 11 10 9 5 1 -4 -9 -14 -18 -20 -20 -17 -14 -11 -8 -4 -0 3 6 10 13 14 14 13 12 11 10 9 9 8 8 7 8 9 10 10 11 11 11 10 10 10 10 11
27 29 30 31 32 33 34 34 34 35 36 36 36 36 36 36 35 34 33 31 29 27 25 23 21 19 18 16 15 13 12 10 9 8 7 7 7 7 6 6 7 8 9 10 11 11 10 8 5 3 0 -2 -3 -4 -3 -2 0 2 5 8 10 12 13 14 13 13 12 11 10 10 10 9 9 8 9 10 11 11 12 11 11 11 11 11 11 12
22 23 24 25 27 28 30 30 31 33 34 34 34 35 36 36 37 37 37 36 34 32 31 28 25 22 20 18 17 16 15 14 12 11 10 9 8 8 8 7 7 7 7 8 9 10 11 11 11 10 8 7 7 7 7 7 7 8 10 11 12 13 13 13 13 12 11 10 10 10 10 10 10 10 10 11 12 12 12 12 12 12 12 12 12 13
17 18 19 20 21 22 23 24 26 28 30 30 30 31 32 34 35 36 38 38 37 37 36 34 32 29 26 22 20 18 18 17 15 13 12 11 10 10 10 9 8 7 7 7 7 8 9 10 11 11 11 10 9 9 10 10 10 10 11 12 12 12 12 11 11 10 10 10 10 10 10 10 10 11 12 13 13 13 13 12 12 12 13 13 13 14
13 14 14 15 16 16 17 18 20 22 24 25 26 27 28 29 30 32 34 36 37 37 38 37 37 36 33 29 25 23 21 20 18 16 14 13 12 11 11 10 10 9 8 8 7 7 7 7 8 10 11 10 9 8 8 9 10 10 11 11 11 10 10 10 10 9 9 9 9 9 10 10 11 12 13 14 14 14 13 13 13 13 13 14 15 16
Height
5681 5681 5682 5681 5682 5682 5683 5685 5686 5686 5687 5688 5690 5690 5691 5692 5692 5693 5694 5695 5695 5695 5696 5697 5697 5697 5698 5698 5699 5699 5699 5700 5700 5700 5701 5701 5702 5702 5703 5704 5705 5707 5708 5709 5710 5710 5711 5712 5712 5713 5713 5714 5714 5714 5714 5715 5715 5716 5717 5717 5717 5718 5719 5719 5720 5721 5721 5721 5721 5722 5722 5723 5723 5724 5724 5725 5725 5725 5725 5726 5726 5726 5727 5727 5727 5727
5677 5677 5677 5677 5678 5679 5679 5681 5682 5682 5683 5684 5685 5686 5686 5687 5687 5688 5689 5690 5690 5691 5691 5692 5692 5692 5693 5693 5694 5695 5695 5695 5696 5696 5697 5697 5698 5699 5700 5701 5702 5703 5704 5705 5706 5707 5707 5708 5709 5709 5710 5710 5711 5711 5711 5712 5712 5712 5713 5714 5714 5715 5716 5717 5717 5718 5719 5718 5719 5720 5720 5721 5721 5722 5722 5722 5722 5723 5723 5723 5724 5724 5724 5724 5724 5724
5674 5674 5674 5674 5675 5676 5676 5677 5678 5678 5678 5679 5680 5681 5681 5682 5682 5683 5684 5684 5685 5686 5686 5687 5687 5687 5688 5689 5690 5691 5691 5691 5692 5692 5693 5694 5694 5695 5696 5697 5698 5699 5700 5701 5702 5702 5703 5705 5705 5706 5707 5707 5707 5707 5707 5708 5708 5709 5710 5711 5711 5712 5713 5714 5714 5715 5715 5716 5717 5717 5717 5718 5718 5719 5720 5720 5720 5721 5721 5722 5722 5722 5722 5722 5722 5722
5671 5670 5670 5671 5672 5672 5673 5674 5674 5674 5674 5674 5675 5675 5676 5677 5677 5678 5679 5679 5680 5680 5681 5682 5682 5683 5683 5685 5686 5686 5687 5687 5688 5688 5689 5690 5691 5692 5692 5694 5694 5695 5696 5697 5698 5699 5699 5701 5702 5702 5703 5703 5704 5704 5704 5704 5705 5706 5707 5707 5708 5709 5710 5711 5712 5712 5713 5714 5714 5714 5714 5715 5716 5716 5717 5718 5718 5718 5719 5719 5720 5720 5720 5720 5720 5720
5667 5667 5667 5668 5668 5668 5669 5670 5670 5670 5671 5670 5670 5671 5671 5672 5672 5673 5673 5674 5674 5675 5676 5677 5677 5678 5679 5680 5681 5682 5683 5683 5684 5684 5685 5686 5687 5688 5689 5690 5691 5692 5692 5693 5694 5695 5696 5697 5697 5698 5699 5700 5700 5700 5701 5701 5702 5702 5703 5704 5705 5706 5707 5708 5708 5709 5710 5711 5711 5712 5712 5712 5713 5713 5714 5715 5715 5716 5716 5717 5717 5717 5717 5717 5717 5717
5662 5662 5663 5663 5663 5664 5665 5666 5666 5667 5667 5666 5666 5666 5667 5667 5667 5668 5668 5669 5670 5670 5671 5672 5673 5674 5675 5676 5677 5678 5678 5679 5680 5680 5682 5682 5683 5684 5685 5686 5687 5687 5688 5689 5690 5691 5692 5692 5693 5694 5695 5696 5697 5697 5697 5697 5698 5699 5700 5701 5702 5703 5704 5705 5706 5706 5707 5707 5708 5709 5709 5709 5710 5711 5711 5712 5712 5713 5713 5714 5715 5715 5715 5715 5715 5715
5658 5658 5659 5659 5659 5660 5661 5661 5662 5662 5662 5662 5662 5662 5662 5662 5663 5663 5664 5665 5665 5666 5667 5667 5668 5669 5670 5671 5672 5673 5674 5675 5675 5676 5677 5678 5679 5680 5681 5682 5683 5683 5684 5685 5686 5687 5688 5689 5690 5691 5691 5692 5693 5693 5693 5694 5695 5696 5697 5698 5699 5700 5701 5702 5702 5703 5704 5704 5705 5705 5706 5707 5707 5708 5708 5709 5709 5710 5711 5712 5712 5713 5713 5712 5712 5712
5653 5653 5654 5654 5654 5655 5656 5656 5657 5657 5658 5658 5658 5658 5658 5658 5659 5659 5660 5661 5661 5662 5662 5663 5664 5665 5666 5667 5668 5669 5669 5670 5671 5672 5673 5674 5675 5676 5677 5678 5679 5679 5680 5681 5682 5683 5684 5685 5686 5687 5688 5688 5689 5689 5690 5690 5691 5692 5694 5695 5696 5697 5698 5699 5699 5700 5701 5701 5701 5702 5702 5703 5704 5704 5705 5706 5706 5707 5707 5708 5709 5710 5710 5710 5710 5710
5647 5648 5649 5649 5650 5650 5651 5651 5652 5653 5653 5653 5653 5653 5654 5654 5655 5655 5656 5656 5657 5657 5658 5659 5660 5661 5662 5663 5663 5664 5665 5666 5667 5668 5669 5670 5671 5672 5673 5674 5675 5675 5676 5677 5678 5679 5680 5681 5682 5683 5684 5685 5685 5686 5686 5687 5688 5689 5691 5692 5693 5694 5695 5696 5696 5697 5697 5698 5698 5699 5699 5700 5701 5702 5702 5703 5703 5704 5705 5706 5706 5707 5707 5707 5707 5707
5642 5643 5643 5644 5645 5646 5646 5646 5647 5648 5648 5648 5648 5648 5649 5649 5650 5651 5651 5652 5653 5654 5654 5655 5656 5657 5657 5658 5659 5660 5660 5661 5662 5664 5665 5666 5667 5668 5669 5670 5670 5671 5672 5673 5674 5675 5676 5677 5678 5679 5680 5681 5682 5682 5683 5683 5685 5686 5687 5688 5690 5691 5692 5692 5693 5693 5694 5694 5695 5695 5696 5696 5697 5698 5698 5700 5701 5701 5702 5702 5703 5703 5704 5704 5704 5705
5637 5638 5638 5639 5639 5640 5641 5641 5642 5643 5643 5643 5643 5644 5644 5645 5646 5646 5647 5647 5648 5649 5650 5650 5651 5652 5653 5654 5655 5656 5657 5657 5658 5660 5661 5662 5663 5664 5665 5666 5666 5667 5668 5669 5670 5671 5672 5673 5674 5675 5676 5677 5678 5678 5679 5680 5681 5682 5684 5685 5686 5687 5688 5689 5689 5690 5690 5691 5692 5692 5692 5693 5694 5694 5695 5696 5697 5697 5698 5699 5700 5700 5700 5701 5701 5701
5633 5634 5634 5634 5634 5635 5636 5636 5637 5638 5638 5639 5639 5639 5639 5640 5641 5642 5642 5642 5643 5645 5645 5646 5646 5647 5648 5649 5650 5651 5652 5653 5654 5655 5657 5657 5659 5660 5661 5661 5662 5663 5664 5665 5666 5667 5668 5669 5670 5671 5672 5673 5674 5675 5676 5677 5678 5679 5680 5681 5682 5683 5684 5685 5686 5686 5687 5688 5688 5689 5689 5690 5691 5691 5692 5692 5693 5694 5694 5695 5696 5697 5697 5697 5697 5698
5627 5628 5629 5630 5630 5631 5631 5632 5632 5633 5634 5634 5633 5633 5633 5635 5636 5637 5637 5637 5638 5640 5640 5641 5642 5643 5644 5645 5646 5647 5648 5649 5650 5651 5652 5653 5654 5655 5656 5657 5658 5659 5660 5661 5662 5663 5664 5665 5666 5667 5668 5669 5670 5671 5672 5673 5674 5675 5677 5677 5679 5680 5681 5681 5682 5683 5684 5684 5685 5686 5686 5687 5688 5689 5689 5689 5690 5691 5691 5692 5692 5693 5693 5694 5694 5695
5620 5622 5623 5624 5625 5626 5627 5628 5629 5629 5629 5629 5629 5629 5629 5631 5632 5632 5631 5632 5633 5634 5636 5636 5637 5638 5639 5640 5641 5642 5643 5644 5645 5647 5648 5649 5650 5651 5652 5653 5653 5654 5656 5657 5657 5658 5660 5661 5662 5663 5664 5665 5667 5667 5669 5670 5671 5672 5673 5674 5675 5676 5677 5678 5679 5680 5681 5682 5682 5683 5683 5684 5685 5686 5685 5686 5687 5687 5687 5688 5689 5689 5690 5690 5691 5691
5616 5617 5618 5618 5619 5621 5622 5623 5624 5624 5624 5625 5626 5627 5627 5629 5629 5628 5627 5627 5628 5629 5631 5631 5632 5633 5635 5636 5637 5637 5639 5640 5641 5642 5643 5644 5645 5646 5647 5648 5649 5650 5651 5652 5653 5654 5656 5657 5658 5659 5660 5662 5663 5664 5665 5666 5667 5668 5669 5670 5671 5672 5673 5674 5675 5677 5677 5678 5679 5680 5680 5681 5682 5682 5682 5683 5684 5684 5684 5685 5685 5686 5686 5687 5687 5688
5611 5612 5613 5613 5613 5614 5616 5617 5618 5619 5619 5620 5621 5623 5624 5625 5625 5625 5625 5624 5624 5625 5627 5627 5627 5628 5630 5631 5632 5633 5635 5636 5636 5637 5638 5639 5640 5641 5643 5643 5644 5645 5646 5648 5649 5650 5651 5652 5654 5655 5656 5657 5659 5660 5661 5662 5663 5664 5666 5667 5668 5669 5670 5671 5672 5673 5674 5675 5676 5677 5677 5678 5678 5679 5679 5680 5681 5681 5681 5681 5682 5682 5683 5683 5684 5684
5606 5607 5607 5607 5608 5609 5609 5611 5612 5613 5614 5615 5616 5616 5617 5618 5619 5620 5622 5622 5622 5622 5623 5623 5624 5624 5625 5626 5628 5629 5631 5632 5632 5633 5634 5635 5636 5637 5638 5639 5639 5640 5642 5643 5645 5646 5647 5648 5650 5651 5652 5653 5655 5656 5657 5658 5659 5661 5662 5663 5664 5665 5666 5667 5668 5669 5671 5672 5672 5673 5674 5674 5675 5675 5676 5677 5677 5677 5677 5678 5679 5679 5680 5680 5681 5681
5600 5601 5601 5602 5603 5603 5604 5605 5606 5607 5608 5610 5611 5612 5612 5612 5613 5614 5615 5617 5617 5618 5618 5619 5619 5620 5620 5622 5623 5625 5627 5628 5629 5629 5630 5631 5632 5632 5633 5634 5635 5636 5638 5639 5641 5642 5643 5645 5646 5647 5648 5649 5651 5652 5653 5654 5655 5657 5658 5659 5660 5661 5662 5663 5665 5666 5667 5667 5668 5669 5670 5671 5671 5672 5672 5673 5673 5674 5674 5674 5675 5676 5677 5677 5677 5678
5595 5595 5596 5597 5597 5598 5600 5600 5601 5601 5602 5603 5604 5606 5607 5608 5608 5609 5609 5610 5611 5612 5613 5614 5615 5615 5617 5617 5619 5620 5622 5624 5625 5625 5625 5626 5627 5628 5629 5630 5631 5632 5633 5635 5637 5638 5639 5641 5642 5643 5645 5646 5647 5647 5649 5650 5651 5652 5654 5655 5656 5657 5658 5660 5661 5662 5663 5664 5665 5665 5666 5667 5667 5668 5668 5669 5670 5670 5670 5671 5671 5672 5673 5673 5674 5674
5589 5590 5591 5591 5592 5594 5595 5595 5596 5597 5598 5598 5600 5601 5601 5602 5604 5604 5604 5605 5606 5607 5608 5609 5610 5611 5612 5613 5615 5616 5617 5619 5621 5621 5621 5622 5623 5624 5625 5626 5627 5628 5630 5631 5633 5634 5636 5637 5638 5639 5641 5642 5642 5644 5645 5646 5647 5648 5650 5651 5652 5653 5655 5656 5657 5658 5659 5660 5661 5662 5662 5663 5663 5664 5665 5666 5666 5667 5667 5668 5668 5668 5669 5669 5670 5671
5584 5584 5585 5586 5588 5589 5589 5590 5591 5592 5593 5594 5595 5596 5596 5597 5598 5599 5600 5601 5602 5602 5603 5604 5605 5606 5608 5609 5610 5611 5612 5615 5616 5616 5617 5618 5619 5620 5621 5622 5623 5624 5626 5627 5629 5630 5632 5633 5634 5635 5636 5637 5638 5640 5641 5642 5643 5645 5646 5647 5648 5650 5651 5652 5653 5654 5655 5656 5657 5657 5658 5659 5660 5660 5661 5662 5662 5663 5664 5665 5665 5666 5665 5665 5666 5667
5578 5578 5579 5581 5582 5583 5584 5585 5586 5587 5587 5588 5589 5589 5590 5591 5592 5592 5594 5596 5597 5598 5598 5599 5600 5602 5603 5604 5605 5606 5608 5610 5611 5612 5613 5614 5615 5616 5617 5618 5619 5620 5622 5623 5625 5626 5627 5628 5630 5631 5632 5633 5634 5636 5637 5638 5640 5641 5642 5643 5645 5646 5647 5648 5649 5650 5651 5652 5653 5654 5654 5655 5656 5657 5657 5658 5659 5660 5660 5662 5662 5663 5662 5662 5663 5664
5572 5572 5574 5576 5577 5577 5578 5579 5580 5581 5581 5582 5583 5583 5584 5586 5587 5587 5588 5590 5591 5592 5593 5595 5596 5597 5598 5599 5600 5602 5603 5605 5606 5607 5609 5610 5611 5612 5613 5615 5616 5617 5618 5619 5621 5622 5623 5624 5625 5627 5628 5629 5630 5632 5633 5635 5636 5637 5638 5640 5641 5642 5643 5644 5645 5646 5647 5648 5649 5650 5651 5652 5652 5653 5654 5655 5656 5657 5657 5659 5659 5659 5659 5660 5661 5661
5566 5567 5568 5570 5571 5571 5572 5573 5574 5575 5575 5576 5577 5577 5578 5580 5581 5582 5583 5584 5586 5587 5588 5590 5591 5592 5593 5594 5596 5597 5599 5600 5602 5603 5605 5605 5607 5608 5610 5611 5612 5612 5613 5615 5617 5617 5618 5619 5621 5622 5623 5625 5626 5628 5629 5631 5632 5633 5635 5636 5637 5638 5639 5641 5642 5643 5643 5644 5645 5646 5647 5648 5649 5650 5651 5652 5652 5653 5655 5656 5656 5656 5657 5657 5658 5658
5559 5561 5562 5563 5564 5565 5566 5567 5568 5569 5569 5570 5571 5572 5572 5574 5575 5576 5577 5579 5580 5582 5582 5584 5585 5586 5587 5589 5591 5592 5593 5595 5597 5598 5599 5601 5602 5604 5605 5606 5607 5608 5609 5610 5612 5613 5614 5615 5616 5618 5619 5621 5622 5624 5625 5627 5628 5630 5631 5632 5633 5635 5636 5637 5638 5639 5640 5641 5642 5642 5644 5645 5646 5647 5647 5648 5649 5650 5652 5652 5652 5652 5653 5654 5655 5656
5553 5554 5555 5556 5557 5558 5559 5560 5561 5562 5563 5563 5564 5565 5566 5567 5569 5571 5572 5573 5575 5576 5577 5578 5579 5580 5581 5584 5586 5587 5588 5590 5592 5593 5594 5595 5597 5598 5600 5601 5602 5603 5604 5605 5607 5608 5609 5610 5612 5613 5615 5616 5618 5619 5621 5623 5624 5626 5627 5628 5629 5631 5632 5633 5634 5636 5637 5637 5638 5639 5640 5641 5642 5643 5644 5645 5646 5647 5648 5649 5649 5649 5650 5651 5652 5653
5546 5547 5548 5549 5550 5551 5552 5553 5554 5555 5556 5557 5558 5559 5560 5561 5563 5564 5566 5567 5568 5570 5571 5572 5573 5574 5576 5578 5580 5581 5583 5585 5586 5587 5589 5590 5592 5592 5594 5596 5597 5598 5599 5600 5601 5603 5604 5605 5607 5608 5610 5612 5613 5615 5617 5618 5620 5622 5623 5624 5626 5627 5628 5630 5631 5632 5633 5634 5635 5636 5637 5638 5639 5640 5641 5642 5643 5644 5645 5646 5646 5647 5647 5648 5649 5650
5539 5540 5541 5542 5543 5544 5545 5546 5547 5548 5549 5550 5551 5552 5553 5555 5556 5557 5558 5559 5562 5563 5565 5566 5567 5569 5571 5572 5574 5575 5577 5580 5581 5582 5583 5585 5586 5587 5588 5591 5592 5593 5593 5595 5596 5597 5599 5601 5602 5604 5606 5607 5609 5611 5612 5614 5616 5617 5619 5620 5622 5623 5624 5626 5627 5628 5629 5630 5632 5632 5633 5635 5636 5637 5638 5639 5640 5641 5642 5642 5643 5644 5644 5645 5647 5648
5532 5533 5534 5535 5536 5537 5538 5539 5540 5541 5542 5543 5544 5545 5546 5547 5548 5549 5550 5553 5555 5557 5557 5558 5560 5562 5564 5566 5568 5570 5572 5574 5575 5577 5579 5580 5580 5581 5583 5586 5587 5587 5588 5590 5591 5592 5594 5596 5597 5599 5601 5602 5604 5606 5608 5610 5612 5613 5615 5616 5617 5619 5621 5622 5623 5625 5626 5627 5628 5629 5630 5631 5632 5633 5635 5636 5637 5637 5638 5639 5640 5641 5642 5642 5643 5644
5524 5525 5526 5527 5528 5529 5531 5532 5533 5534 5535 5536 5537 5537 5538 5540 5541 5542 5544 5547 5548 5549 5550 5551 5553 5556 5558 5560 5562 5563 5565 5567 5569 5572 5574 5575 5574 5575 5578 5580 5581 5582 5583 5585 5586 5587 5588 5590 5592 5595 5596 5597 5599 5601 5603 5605 5607 5609 5611 5612 5614 5615 5617 5618 5620 5621 5622 5623 5624 5625 5627 5628 5629 5630 5631 5632 5633 5634 5635 5636 5637 5637 5638 5639 5640 5641
5516 5517 5518 5519 5520 5522 5523 5524 5526 5527 5528 5529 5530 5531 5532 5532 5534 5535 5537 5539 5541 5541 5542 5544 5546 5548 5551 5553 5555 5557 5558 5561 5564 5567 5568 5569 5568 5569 5572 5575 5576 5576 5578 5580 5581 5582 5583 5585 5587 5590 5591 5592 5594 5596 5598 5600 5602 5604 5606 5608 5610 5611 5613 5614 5616 5617 5618 5619 5621 5622 5623 5624 5625 5627 5628 5629 5630 5631 5632 5633 5633 5634 5635 5636 5637 5638
5508 5509 5510 5511 5512 5514 5515 5517 5518 5519 5521 5522 5523 5524 5525 5526 5527 5528 5530 5531 5533 5534 5535 5537 5539 5541 5544 5546 5548 5550 5552 5555 5558 5560 5562 5563 5562 5563 5567 5569 5570 5571 5573 5575 5576 5577 5578 5580 5582 5584 5586 5588 5589 5591 5593 5596 5598 5600 5602 5604 5606 5607 5609 5610 5612 5613 5614 5616 5617 5618 5619 5620 5622 5623 5624 5626 5627 5627 5628 5629 5630 5631 5632 5633 5633 5634
5499 5501 5502 5503 5504 5506 5507 5508 5510 5511 5512 5514 5515 5517 5518 5520 5521 5522 5524 5525 5526 5527 5529 5530 5532 5534 5536 5539 5541 5543 5546 5549 5552 5554 5556 5557 5557 5557 5560 5563 5564 5566 5567 5569 5571 5572 5573 5575 5577 5579 5581 5583 5585 5587 5589 5591 5593 5595 5597 5599 5601 5603 5605 5606 5608 5609 5611 5612 5613 5615 5616 5617 5617 5619 5621 5622 5623 5624 5625 5626 5627 5628 5629 5629 5630 5631
5491 5492 5493 5494 5496 5497 5499 5500 5502 5503 5504 5506 5507 5508 5510 5512 5514 5515 5517 5518 5520 5521 5523 5524 5525 5527 5529 5531 5534 5537 5540 5543 5546 5548 5550 5551 5551 5552 5554 5557 5558 5560 5562 5563 5565 5566 5568 5570 5572 5574 5576 5578 5580 5582 5584 5586 5588 5590 5592 5595 5597 5598 5600 5602 5603 5605 5606 5608 5610 5611 5612 5613 5614 5615 5617 5618 5620 5621 5622 5623 5624 5625 5625 5626 5627 5627
5482 5483 5484 5485 5487 5488 5490 5491 5493 5495 5496 5497 5499 5500 5502 5504 5506 5507 5509 5511 5513 5515 5517 5518 5519 5521 5523 5525 5527 5530 5533 5536 5539 5542 5544 5545 5546 5547 5549 5551 5552 5554 5557 5558 5559 5561 5563 5565 5567 5569 5571 5572 5575 5577 5579 5581 5583 5586 5588 5590 5592 5593 5595 5597 5599 5600 5602 5604 5605 5607 5608 5609 5611 5612 5613 5614 5616 5617 5618 5620 5621 5621 5622 5623 5623 5624
5472 5473 5474 5476 5477 5479 5481 5482 5484 5486 5487 5489 5490 5492 5494 5495 5497 5499 5501 5503 5505 5507 5509 5511 5513 5515 5517 5519 5521 5524 5527 5529 5532 5535 5537 5539 5541 5542 5544 5545 5547 5550 5552 5553 5554 5556 5557 5559 5561 5563 5566 5567 5569 5571 5574 5576 5578 5581 5583 5585 5587 5589 5590 5592 5594 5596 5597 5599 5601 5602 5604 5605 5607 5607 5609 5610 5612 5613 5614 5615 5617 5617 5618 5619 5620 5621
5462 5463 5464 5466 5467 5469 5471 5473 5475 5477 5478 5480 5482 5483 5485 5487 5488 5490 5492 5494 5497 5499 5501 5504 5506 5509 5511 5513 5515 5518 5521 5523 5526 5528 5531 5532 5535 5537 5539 5540 5542 5545 5547 5548 5549 5551 5552 5554 5556 5558 5560 5562 5564 5566 5569 5572 5574 5576 5578 5580 5582 5584 5586 5588 5589 5591 5593 5595 5597 5598 5600 5601 5602 5603 5605 5606 5607 5609 5610 5611 5612 5614 5615 5616 5617 5618
5452 5453 5454 5456 5457 5459 5461 5463 5465 5467 5468 5470 5472 5474 5476 5478 5480 5482 5484 5486 5488 5490 5492 5495 5498 5501 5503 5506 5509 5511 5514 5517 5519 5522 5524 5527 5529 5531 5533 5536 5538 5540 5542 5543 5544 5546 5547 5549 5550 5552 5554 5557 5559 5562 5564 5567 5569 5571 5573 5575 5577 5579 5581 5583 5585 5587 5588 5590 5592 5594 5596 5597 5598 5600 5601 5602 5603 5605 5606 5608 5609 5610 5611 5612 5613 5615
5441 5442 5444 5445 5447 5449 5451 5453 5455 5457 5458 5460 5462 5464 5467 5469 5471 5473 5475 5477 5479 5481 5483 5486 5489 5492 5495 5498 5501 5504 5507 5509 5512 5515 5518 5521 5523 5526 5528 5530 5533 5535 5537 5539 5540 5541 5542 5543 5544 5546 5549 5551 5554 5557 5559 5562 5564 5566 5568 5571 5573 5575 5577 5578 5580 5582 5584 5586 5588 5590 5591 5593 5594 5596 5597 5598 5599 5601 5602 5604 5605 5607 5608 5609 5610 5611
5429 5431 5433 5434 5436 5438 5441 5442 5444 5446 5448 5450 5452 5454 5456 5459 5461 5463 5465 5467 5469 5472 5474 5477 5480 5483 5486 5489 5492 5495 5498 5501 5504 5507 5511 5514 5517 5520 5523 5525 5527 5530 5532 5533 5535 5536 5537 5538 5539 5541 5543 5546 5548 5551 5553 5556 5558 5561 5563 5566 5568 5570 5572 5574 5576 5578 5579 5582 5583 5585 5587 5588 5590 5592 5593 5594 5596 5597 5598 5600 5601 5602 5603 5605 5606 5607
5417 5420 5422 5423 5425 5427 5430 5432 5433 5435 5437 5440 5442 5444 5446 5448 5450 5452 5454 5457 5460 5463 5465 5468 5471 5474 5477 5480 5483 5487 5489 5492 5496 5499 5503 5507 5510 5513 5517 5519 5522 5524 5527 5528 5529 5530 5532 5533 5535 5536 5538 5540 5542 5544 5547 5550 5553 5555 5558 5560 5562 5564 5567 5569 5571 5573 5575 5577 5579 5580 5582 5584 5585 5587 5589 5590 5592 5593 5594 5596 5597 5598 5599 5600 5602 5603
5407 5409 5410 5411 5413 5416 5419 5421 5422 5424 5427 5430 5432 5434 5436 5437 5439 5442 5444 5447 5450 5453 5455 5458 5461 5464 5467 5471 5474 5477 5480 5484 5487 5491 5494 5498 5502 5505 5509 5512 5515 5518 5521 5522 5524 5525 5526 5528 5530 5531 5532 5534 5536 5538 5541 5544 5547 5550 5552 5555 5557 5560 5562 5564 5566 5568 5570 5572 5574 5576 5578 5579 5581 5582 5584 5586 5587 5588 5590 5591 5592 5594 5595 5597 5598 5599
5397 5398 5399 5400 5403 5405 5407 5409 5412 5414 5417 5419 5421 5423 5425 5426 5428 5432 5434 5437 5440 5442 5445 5448 5451 5454 5457 5461 5465 5469 5472 5475 5478 5482 5486 5490 5493 5497 5500 5504 5507 5511 5514 5517 5518 5519 5521 5522 5524 5526 5527 5528 5530 5532 5535 5538 5541 5544 5547 5549 5552 5554 5557 5559 5561 5563 5566 5567 5569 5571 5573 5575 5577 5578 5580 5581 5582 5584 5585 5587 5588 5590 5591 5592 5594 5595
5388 5388 5389 5391 5393 5395 5397 5399 5401 5403 5405 5407 5410 5412 5414 5415 5418 5421 5424 5426 5429 5432 5434 5437 5440 5443 5447 5451 5454 5458 5463 5466 5469 5473 5477 5481 5484 5488 5492 5495 5498 5502 5506 5509 5511 5512 5514 5517 5518 5520 5521 5523 5525 5526 5529 5532 5535 5538 5541 5543 5546 5548 5550 5552 5556 5559 5561 5562 5564 5566 5568 5570 5572 5574 5575 5577 5578 5579 5581 5582 5584 5586 5587 5588 5590 5592
5380 5380 5381 5382 5384 5386 5387 5389 5391 5392 5394 5397 5400 5402 5403 5404 5407 5410 5413 5416 5418 5421 5424 5427 5429 5432 5436 5440 5443 5447 5453 5458 5461 5464 5468 5472 5475 5479 5482 5486 5489 5492 5496 5500 5502 5505 5508 5510 5511 5513 5515 5517 5519 5520 5522 5526 5529 5532 5535 5538 5541 5544 5546 5547 5550 5553 5554 5556 5558 5561 5563 5565 5567 5569 5571 5572 5573 5575 5576 5578 5580 5582 5583 5584 5586 5587
5372 5373 5374 5375 5376 5377 5379 5380 5381 5382 5385 5387 5390 5391 5392 5393 5396 5399 5402 5405 5408 5411 5413 5416 5419 5422 5427 5429 5433 5437 5443 5448 5452 5455 5458 5462 5465 5469 5473 5476 5480 5483 5487 5490 5493 5496 5499 5502 5504 5506 5509 5511 5512 5514 5516 5519 5523 5526 5529 5532 5536 5539 5541 5543 5545 5547 5548 5551 5553 5555 5557 5560 5562 5564 5566 5567 5569 5571 5572 5574 5576 5577 5579 5580 5582 5584
5366 5366 5367 5367 5368 5370 5371 5371 5372 5374 5377 5378 5380 5381 5382 5383 5386 5389 5392 5394 5397 5400 5402 5405 5408 5412 5416 5419 5422 5427 5433 5437 5441 5445 5448 5452 5455 5459 5462 5467 5470 5474 5477 5480 5483 5487 5489 5492 5495 5498 5500 5503 5505 5507 5510 5513 5517 5520 5523 5526 5530 5533 5535 5537 5539 5542 5543 5546 5547 5550 5552 5555 5557 5559 5560 5563 5565 5567 5568 5570 5572 5573 5575 5576 5578 5580
5359 5360 5361 5361 5362 5363 5363 5364 5365 5367 5368 5370 5371 5371 5373 5375 5377 5379 5382 5384 5386 5389 5392 5394 5398 5402 5405 5408 5412 5417 5422 5426 5430 5434 5438 5442 5445 5449 5452 5456 5460 5464 5467 5471 5474 5477 5480 5483 5486 5488 5491 5494 5497 5500 5503 5507 5511 5514 5517 5521 5524 5527 5529 5531 5534 5536 5538 5540 5542 5544 5547 5549 5551 5553 5556 5558 5561 5562 5564 5566 5567 5569 5570 5572 5574 5576
5354 5355 5355 5355 5356 5357 5357 5357 5358 5359 5361 5362 5363 5364 5365 5366 5368 5370 5372 5373 5376 5379 5382 5385 5387 5391 5394 5397 5402 5407 5411 5415 5419 5424 5428 5432 5436 5439 5442 5446 5450 5454 5458 5461 5465 5468 5471 5474 5477 5480 5483 5487 5491 5494 5497 5501 5505 5509 5512 5515 5518 5521 5523 5526 5528 5531 5533 5534 5537 5539 5542 5544 5546 5548 5551 5553 5555 5557 5559 5562 5563 5565 5566 5568 5570 5572
5349 5349 5350 5350 5350 5351 5351 5351 5352 5353 5354 5355 5356 5357 5358 5359 5360 5361 5363 5364 5366 5369 5372 5374 5377 5380 5384 5388 5392 5396 5400 5404 5409 5413 5417 5422 5425 5429 5432 5436 5440 5444 5448 5451 5455 5458 5461 5465 5468 5471 5475 5479 5483 5487 5491 5495 5499 5503 5507 5509 5512 5515 5517 5520 5523 5525 5527 5529 5531 5534 5537 5539 5541 5543 5546 5548 5550 5552 5555 5557 5559 5560 5562 5564 5566 5568
5344 5344 5344 5344 5345 5345 5345 5346 5346 5347 5348 5348 5349 5350 5351 5352 5353 5354 5355 5356 5358 5360 5362 5364 5367 5370 5374 5378 5381 5385 5389 5393 5397 5402 5407 5411 5415 5418 5422 5425 5429 5433 5437 5441 5444 5447 5451 5455 5458 5462 5467 5472 5476 5480 5484 5488 5492 5497 5500 5502 5505 5509 5512 5515 5517 5520 5522 5524 5526 5528 5531 5534 5536 5538 5541 5543 5545 5548 5550 5552 5554 5556 5558 5560 5562 5564